Powrót do katalogu

HORYU 2

AktywnyNaukaSSO
NORAD 38340·PAYLOAD·🇯🇵 Japan

Wystrzelony May 17, 2012 z Tanegashima Space Center

Loading…

Następne Przeloty (najbliższe 24 godziny)

TLE

ŚwieżeSource: Space-Track

Epoka: Sep 14, 2026, 08:14 UTC

1 38340U 12025D   26257.34317542  .00002606  00000-0  26634-3 0  9997
2 38340  98.2304  34.0180 0006796 246.3973 113.6531 14.91515345762018

Śledź HORYU 2 w czasie rzeczywistym z AllMySat

Download on the App Store